Location: Pedholt
(56.0260°N, 10.2097°E)
Time: 21:32:23
(UTC+00:00)

SR - Pass Details

Date: 02 August 2021
Orbit: 581 x 874 km, 66.7° (Epoch: 26 September)

Event Time Altitude Azimuth Distance (km) Brightness Sun altitude
Rises 13:13:34 0° 315° (NW) 3,187 ? 46.5°
Reaches altitude 10° 13:16:03 10° 313° (NW) 2,211 ? 46.3°
Maximum altitude 13:21:01 66° 232° (SW) 736 ? 45.8°
Drops below altitude 10° 13:25:32 10° 151° (SSE) 2,021 ? 45.4°
Sets 13:27:44 0° 148° (SSE) 2,890 ? 45.2°
